Погода в Балаганске

Погода в Балаганске : погода сейчас, прогноз погоды и архив. Всё, что Вы хотите узнать о погоде в Балаганске!

Хотите узнать прогноз погоды в Балаганске? Тогда Вам сюда: Погода в Балаганске

Поиск расширенной информации на нашем сайте:

Другие новости

Новости СМИ2

Главная страница сайта

Новости сайта

03.07.2017

Напоминаем, что на нашем специализированном сайте Метеоцентр.Азия вы можете получить высокодетализированные автоматические прогнозы погоды по пунктам России, СНГ и мира в авиационном формате (включающие направление и скорость ветра, видимость, явления погоды, количество и форму облачности, нижнюю и верхнюю границу облачности).

Рекомендуем: Кто готов сделать сайт интернет магазина люстры.

Погода в Балаганске - сегодня

Время (UTC), дата Ветер
(°,м/с) 
Видим.   Явления Облачность Т
(°С)
Тd
(°С)
f(%) Тe
(°С)
Pmin
(гПа)
dP
(гПа)
Po
(мм)
O2
(г/м3)
Тmin Tmax R s Состояние
почвы
00 20.04.18 310 (СЗ) 20000 м    10/0 средняя, верхняя 
[Ac As|Cs]
-2.7 -4.8 85 -4  1023.8  1.1  728  297  -5.3         
03 20.04.18 100 (В) 20000 м    9/3 600 м средняя 
[Sc|Ac trans]
+2.5 -5.7 55 +1  1022.2  1.1  727  291           
06 20.04.18 100 (В) 20000 м    10/3 600 м средняя, верхняя 
[Sc|Ac trans|Cs]
+5.9 -4.7 46 +4  1019.3  -2.1  726  287           
09 20.04.18 100 (В) 20000 м    10/1 600 м средняя, верхняя 
[Sc|Ac trans|Cs]
+8.4 -4.3 40 +8  1017.2  -1.5  725  284           
12 20.04.18 320 (СЗ) 20000 м    10/3 600 м средняя, верхняя 
[Sc|Ac lent|Cs]
+6.8 -3.7 47 +6  1018.4  0.8  725  285    +8.8       
15 20.04.18 330 (СЗ) н/о    10/4 600 м кучево-дожд., средняя, верхняя 
[Cb cap|Ac trans|Cs]
+5 -3 56 +4  1020.4  1.6  726  288           
18 20.04.18 300 (СЗ) н/о  слаб. ливневой дождь  10/6 600 м кучево-дожд., средняя 
[Cb cap|Ac As]
+4.2 -1.6 66 +4  1022.2  1.6  728  289           
21 20.04.18 290 (З) н/о    10/6 600 м кучево-дожд., средняя 
[Cb cap|Ac As]
+3.1 -1.4 72 +2  1023.3  0.8  728  290           
00 21.04.18 280 (З) 20000 м    3/1 600 м верхняя 
[Sc diur, vesp|Ci fib]
+2.8 -1 76 +1  1025.2  1.8  730  291  +1.3    0.0     
03 21.04.18 110 (В) 20000 м    3/0 верхняя 
[Cs]
+8.6 -6.1 35 +9  1024.7  0.5  730  286           
06 21.04.18 110 (В) 20000 м    3/0 верхняя 
[Cs]
+9.6 -6.6 31 +9  1023.8  -0.7  729  285           
09 21.04.18 100 (В) 20000 м    3/0 верхняя 
[Cs]
+9.5 -2.8 42 +8  1022.3  -1.4  728  284           
12 21.04.18 160 (Ю) 20000 м    3/0 верхняя 
[Cs]
+9.3 -2.6 43 +9  1022.7  0.3  729  284    +10.5       
15 21.04.18 090 (В) н/о    3/0 верхняя 
[Ci fib]
+1 -1.5 83 -1  1025.6  1.3  730  293           
18 21.04.18 090 (В) н/о    3/0 верхняя 
[Ci fib]
-0.2 -1.1 94 -1  1026  0.2  730  294           
21 21.04.18 100 (В) н/о    3/0 верхняя 
[Ci fib]
-1.3 -1.9 96 -2  1025.5  -0.7  729  295           
00 22.04.18 090 (В) 20000 м    10/3 600 м средняя, верхняя 
[Sc|Ac trans|Cs]
-0.2 -1.2 93 -2  1025.4  0.1  729  294  -1.7         
03 22.04.18 080 (В) 20000 м    10/3 600 м верхняя 
[Sc|Cs]
+4.3 +0.3 75 +3  1024  -0.5  729  289           
06 22.04.18 090 (В) 20000 м    10/0 верхняя 
[Cs]
+9.8 +1.3 55 +9  1020.3  -2.5  727  283           
09 22.04.18 100 (В) 20000 м    8/1 600 м верхняя 
[Cu hum|Cs]
+13.3 -3.5 31 +12  1016.8  -2.8  725  279           
12 22.04.18 170 (Ю) 20000 м    8/0 средняя, верхняя 
[Ac lent|Cs]
+11.4 -5.3 31 +13  1015.8  -1.3  724  281    +14.6       
15 22.04.18 240 (ЮЗ) н/о    6/0 средняя, верхняя 
[Ac lent|Cs]
+6 -4.4 47 +7  1016.7  724  286           
18 22.04.18 290 (З) н/о    6/0 средняя, верхняя 
[Ac trans|Cs]
+1.8 -4.3 64 +3  1017.2  -0.3  724  290           
21 22.04.18 тихо ()   н/о    6/3 600 м верхняя 
[Sc|Cs]
-0.7 -4.4 76 -1  1018.4  0.6  724  293           
00 23.04.18 090 (В) 20000 м    8/1 600 м средняя, верхняя 
[Sc|Ac trans|Cs]
+1.3 -2.1 78 +1  1019.7  1.6  725  291  -1.8         
Время (UTC), дата Ветер
(°,м/с) 
Видим.   Явления Облачность Т
(°С)
Тd
(°С)
f(%) Тe
(°С)
Pmin
(гПа)
dP
(гПа)
Po
(мм)
O2
(г/м3)
Тmin Tmax R s Состояние
почвы

Для получения пояснительной информации подведите курсор к названию столбца.

ПОГОДА в Балаганске - архив

Всё, что Вы хотите узнать о погоде в Балаганске - удобно и подробно!

Выберите нужную дату (начиная с 1 января 2015* года) и нажмите кнопку "Найти".
Будут отображены архивные сводки погоды по пункту Балаганск, начиная с указанной даты.


Отображать данные в формате CSV (для использования в таблицах Excel)


Внимание! Наш архив погоды предназначен исключительно для личного некоммерческого использования в познавательных целях. Если Вам необходимы официальные справки о состоянии погоды (для производственных, юридических, коммерческих и т.п. целей), обращайтесь в органы Росгидромета.

*Примечание: данная дата относится к архиву по метеостанциям СССР (Россия, СНГ, Балтия).
Архив по метеостанциям Зарубежной Европы и Азии (кроме Китая) хранится 10 дней, по другим регионам земного шара (Китай, Африка, Америка, Австралия, Океания) - 1 день.

Балаганск - район местоположения метеостанции


Название, широта, долгота, высота метеостанции:
Балаганск 54°ш. 103.1°д. 427 м над ур. моря [Российская Федерация]

Дополнительная информация

В oтличие oт бoльшинства пoгoдных сайтoв мы публикуем пoдрoбную метеoинфoрмацию в детальнoм прoфессиoнальнoм фoрмате.

Характеристики температуры и влажнoсти вoздуха измеряются на высoте 2 м в тени вдали oт зданий и деревьев.
Скoрoсть ветра измеряется на высoте 10 м (на урoвне рoста челoвека скoрoсть ветра ниже в 1.5-2 раза). Если метеoстанция нахoдится в гoрoде или в лесу, тo скoрoсть ветра занижена на 2-4 м/с пo сравнению с oткрытым местoм. Скoрoсть ветра над акватoриями крупных рек и oзёр, а также на вершинах хoлмoв на 2-5 м/с выше, чем в oбычных услoвиях.
Атмoсфернoе давление в разных тoчках местнoсти мoжет значительнo oтличаться oт давления на метеoстанции, в зависимoсти oт услoвий рельефа (при пoдъёме на 10 м давление пoнижается примернo на 1 мм рт.ст.).